Wetterdaten: Dienstag, 10.09.2013
Datum Zeit Temperatur Luftfeuchte Luftdruck Regen Wind Richtung Richtung Taupunkt Windchill Windben
10.09.2013 00:00 5,9 C 90 % 1020,6 hPa 0,0 l/m 0,0 km/h (0 Bft) N-NO 22 4,4 C 5,6 C 0,0 km/h (0 Bft)
10.09.2013 00:05 5,9 C 90 % 1020,6 hPa 0,0 l/m 0,2 km/h (0 Bft) O-SO 112 4,4 C 5,6 C 1,9 km/h (1 Bft)
10.09.2013 00:10 6,1 C 90 % 1020,6 hPa 0,0 l/m 0,2 km/h (0 Bft) W-NW 292 4,6 C 5,8 C 0,0 km/h (0 Bft)
10.09.2013 00:15 5,9 C 90 % 1020,6 hPa 0,0 l/m 0,2 km/h (0 Bft) W 270 4,4 C 5,8 C 0,0 km/h (0 Bft)
10.09.2013 00:20 6,1 C 90 % 1020,2 hPa 0,0 l/m 0,2 km/h (0 Bft) S-SW 202 4,6 C 5,9 C 2,3 km/h (1 Bft)
10.09.2013 00:25 6,3 C 90 % 1020,2 hPa 0,0 l/m 0,6 km/h (0 Bft) S-SW 202 4,8 C 6,1 C 0,0 km/h (0 Bft)
10.09.2013 00:30 6,2 C 90 % 1020,2 hPa 0,0 l/m 0,6 km/h (0 Bft) S-SW 202 4,7 C 6,2 C 2,6 km/h (1 Bft)
10.09.2013 00:35 6,2 C 90 % 1020,2 hPa 0,0 l/m 0,2 km/h (0 Bft) W-SW 247 4,7 C 6,2 C 0,0 km/h (0 Bft)
10.09.2013 00:40 6,1 C 90 % 1019,9 hPa 0,0 l/m 0,0 km/h (0 Bft) W-SW 247 4,6 C 6,2 C 0,0 km/h (0 Bft)
10.09.2013 00:45 6,1 C 90 % 1019,9 hPa 0,0 l/m 0,5 km/h (0 Bft) S-SO 157 4,6 C 6,2 C 2,9 km/h (1 Bft)
10.09.2013 00:50 6,1 C 90 % 1019,9 hPa 0,0 l/m 0,6 km/h (0 Bft) S 180 4,6 C 6,3 C 0,0 km/h (0 Bft)
10.09.2013 00:55 6,0 C 90 % 1019,9 hPa 0,0 l/m 0,3 km/h (0 Bft) O-NO 67 4,5 C 6,2 C 0,0 km/h (0 Bft)
10.09.2013 01:00 6,1 C 90 % 1019,8 hPa 0,0 l/m 0,2 km/h (0 Bft) W-SW 247 4,6 C 6,2 C 0,0 km/h (0 Bft)
10.09.2013 01:05 6,2 C 90 % 1019,8 hPa 0,0 l/m 0,3 km/h (0 Bft) S-SO 157 4,7 C 6,2 C 0,0 km/h (0 Bft)
10.09.2013 01:10 6,2 C 90 % 1019,8 hPa 0,0 l/m 0,3 km/h (0 Bft) O 90 4,7 C 6,2 C 1,6 km/h (1 Bft)
10.09.2013 01:15 6,3 C 90 % 1019,8 hPa 0,0 l/m 0,3 km/h (0 Bft) N-NO 22 4,8 C 6,3 C 0,0 km/h (0 Bft)
10.09.2013 01:20 6,3 C 90 % 1019,6 hPa 0,0 l/m 0,5 km/h (0 Bft) W 270 4,8 C 6,3 C 3,1 km/h (1 Bft)
10.09.2013 01:25 6,3 C 90 % 1019,6 hPa 0,0 l/m 0,5 km/h (0 Bft) N 360 4,8 C 6,4 C 0,0 km/h (0 Bft)
10.09.2013 01:30 6,3 C 90 % 1019,6 hPa 0,0 l/m 0,3 km/h (0 Bft) W-SW 247 4,8 C 6,4 C 4,2 km/h (1 Bft)
10.09.2013 01:35 6,3 C 90 % 1019,6 hPa 0,0 l/m 0,2 km/h (0 Bft) N 360 4,8 C 6,2 C 0,0 km/h (0 Bft)
10.09.2013 01:40 6,2 C 90 % 1019,4 hPa 0,0 l/m 0,0 km/h (0 Bft) S 180 4,7 C 6,2 C 0,0 km/h (0 Bft)
10.09.2013 01:45 6,2 C 90 % 1019,4 hPa 0,0 l/m 0,2 km/h (0 Bft) SO 135 4,7 C 6,0 C 0,0 km/h (0 Bft)
10.09.2013 01:50 6,4 C 90 % 1019,4 hPa 0,0 l/m 0,3 km/h (0 Bft) SO 135 4,9 C 6,1 C 3,2 km/h (1 Bft)
10.09.2013 01:55 6,5 C 90 % 1019,4 hPa 0,0 l/m 0,5 km/h (0 Bft) S-SW 202 5,0 C 6,2 C 0,0 km/h (0 Bft)
10.09.2013 02:00 6,5 C 90 % 1019,5 hPa 0,0 l/m 0,5 km/h (0 Bft) O 90 5,0 C 6,2 C 0,0 km/h (0 Bft)
10.09.2013 02:05 6,2 C 90 % 1019,5 hPa 0,0 l/m 0,0 km/h (0 Bft) W 270 4,7 C 5,9 C 0,0 km/h (0 Bft)
10.09.2013 02:10 6,2 C 90 % 1019,5 hPa 0,0 l/m 0,0 km/h (0 Bft) W-SW 247 4,7 C 5,9 C 0,0 km/h (0 Bft)
10.09.2013 02:15 6,1 C 90 % 1019,5 hPa 0,0 l/m 0,0 km/h (0 Bft) O-NO 67 4,6 C 5,8 C 0,0 km/h (0 Bft)
10.09.2013 02:20 6,2 C 90 % 1019,4 hPa 0,0 l/m 0,3 km/h (0 Bft) N 360 4,7 C 5,7 C 0,0 km/h (0 Bft)
10.09.2013 02:25 6,0 C 90 % 1019,4 hPa 0,0 l/m 0,3 km/h (0 Bft) NO 45 4,5 C 5,7 C 0,0 km/h (0 Bft)
10.09.2013 02:30 5,9 C 91 % 1019,4 hPa 0,0 l/m 0,2 km/h (0 Bft) SO 135 4,5 C 5,6 C 0,0 km/h (0 Bft)
10.09.2013 02:35 5,6 C 91 % 1019,4 hPa 0,0 l/m 0,2 km/h (0 Bft) W 270 4,2 C 5,5 C 0,0 km/h (0 Bft)
10.09.2013 02:40 5,6 C 91 % 1019,4 hPa 0,0 l/m 0,0 km/h (0 Bft) NO 45 4,2 C 5,5 C 0,0 km/h (0 Bft)
10.09.2013 02:45 5,6 C 91 % 1019,4 hPa 0,0 l/m 0,2 km/h (0 Bft) O 90 4,2 C 5,4 C 0,0 km/h (0 Bft)
10.09.2013 02:50 5,7 C 91 % 1019,4 hPa 0,0 l/m 0,2 km/h (0 Bft) N-NW 337 4,3 C 5,5 C 0,0 km/h (0 Bft)
10.09.2013 02:55 6,1 C 90 % 1019,4 hPa 0,0 l/m 0,3 km/h (0 Bft) O 90 4,6 C 5,9 C 0,0 km/h (0 Bft)
10.09.2013 03:00 6,2 C 90 % 1019,1 hPa 0,0 l/m 0,5 km/h (0 Bft) S 180 4,7 C 6,2 C 2,7 km/h (1 Bft)
10.09.2013 03:05 6,3 C 90 % 1019,1 hPa 0,0 l/m 1,0 km/h (0 Bft) S 180 4,8 C 6,4 C 1,6 km/h (1 Bft)
10.09.2013 03:10 6,4 C 90 % 1019,1 hPa 0,0 l/m 0,8 km/h (0 Bft) N 360 4,9 C 6,4 C 0,0 km/h (0 Bft)
10.09.2013 03:15 6,3 C 90 % 1019,1 hPa 0,0 l/m 0,6 km/h (0 Bft) W 270 4,8 C 6,4 C 0,0 km/h (0 Bft)
10.09.2013 03:20 6,4 C 90 % 1018,9 hPa 0,0 l/m 0,8 km/h (0 Bft) S-SW 202 4,9 C 6,4 C 0,0 km/h (0 Bft)
10.09.2013 03:25 6,4 C 90 % 1018,9 hPa 0,0 l/m 0,3 km/h (0 Bft) NW 315 4,9 C 6,4 C 0,0 km/h (0 Bft)
10.09.2013 03:30 6,3 C 90 % 1018,9 hPa 0,0 l/m 0,2 km/h (0 Bft) S-SW 202 4,8 C 6,4 C 0,0 km/h (0 Bft)
10.09.2013 03:35 6,5 C 91 % 1018,9 hPa 0,0 l/m 0,2 km/h (0 Bft) W-SW 247 5,1 C 6,4 C 0,0 km/h (0 Bft)
10.09.2013 03:40 6,4 C 91 % 1018,8 hPa 0,0 l/m 0,2 km/h (0 Bft) NO 45 5,0 C 6,4 C 0,0 km/h (0 Bft)
10.09.2013 03:45 6,5 C 91 % 1018,8 hPa 0,0 l/m 0,2 km/h (0 Bft) O-SO 112 5,1 C 6,3 C 2,3 km/h (1 Bft)
10.09.2013 03:50 6,4 C 91 % 1018,8 hPa 0,0 l/m 0,5 km/h (0 Bft) O 90 5,0 C 6,4 C 0,0 km/h (0 Bft)
10.09.2013 03:55 6,4 C 91 % 1018,8 hPa 0,0 l/m 0,6 km/h (0 Bft) S 180 5,0 C 6,3 C 0,0 km/h (0 Bft)
10.09.2013 04:00 6,5 C 90 % 1018,8 hPa 0,0 l/m 0,2 km/h (0 Bft) SO 135 5,0 C 6,3 C 0,0 km/h (0 Bft)
10.09.2013 04:05 6,5 C 90 % 1018,8 hPa 0,0 l/m 0,0 km/h (0 Bft) NO 45 5,0 C 6,3 C 0,0 km/h (0 Bft)
10.09.2013 04:10 6,5 C 90 % 1018,8 hPa 0,0 l/m 0,3 km/h (0 Bft) S 180 5,0 C 6,3 C 3,7 km/h (1 Bft)
10.09.2013 04:15 6,8 C 91 % 1018,8 hPa 0,0 l/m 0,6 km/h (0 Bft) O 90 5,4 C 6,4 C 0,0 km/h (0 Bft)
10.09.2013 04:20 6,7 C 91 % 1018,4 hPa 0,0 l/m 0,6 km/h (0 Bft) S-SO 157 5,3 C 6,4 C 0,0 km/h (0 Bft)
10.09.2013 04:25 6,8 C 91 % 1018,4 hPa 0,0 l/m 0,3 km/h (0 Bft) SO 135 5,4 C 6,5 C 1,9 km/h (1 Bft)
10.09.2013 04:30 7,0 C 90 % 1018,4 hPa 0,0 l/m 0,3 km/h (0 Bft) N-NO 22 5,5 C 6,6 C 0,0 km/h (0 Bft)
10.09.2013 04:35 7,1 C 90 % 1018,4 hPa 0,0 l/m 0,2 km/h (0 Bft) NO 45 5,6 C 6,7 C 0,0 km/h (0 Bft)
10.09.2013 04:40 7,0 C 90 % 1018,4 hPa 0,0 l/m 0,0 km/h (0 Bft) N-NO 22 5,5 C 6,7 C 0,0 km/h (0 Bft)
10.09.2013 04:45 7,1 C 90 % 1018,4 hPa 0,0 l/m 0,2 km/h (0 Bft) N-NW 337 5,6 C 6,6 C 0,0 km/h (0 Bft)
10.09.2013 04:50 6,9 C 90 % 1018,4 hPa 0,0 l/m 0,2 km/h (0 Bft) NO 45 5,4 C 6,6 C 0,0 km/h (0 Bft)
10.09.2013 04:55 6,5 C 90 % 1018,4 hPa 0,0 l/m 0,0 km/h (0 Bft) NW 315 5,0 C 6,4 C 0,0 km/h (0 Bft)
10.09.2013 05:00 6,3 C 90 % 1018,3 hPa 0,0 l/m 0,0 km/h (0 Bft) O-SO 112 4,8 C 6,3 C 0,0 km/h (0 Bft)
10.09.2013 05:05 6,2 C 90 % 1018,3 hPa 0,0 l/m 0,0 km/h (0 Bft) NO 45 4,7 C 6,1 C 0,0 km/h (0 Bft)
10.09.2013 05:10 6,2 C 90 % 1018,3 hPa 0,0 l/m 0,0 km/h (0 Bft) O 90 4,7 C 6,1 C 1,8 km/h (1 Bft)
10.09.2013 05:15 6,4 C 90 % 1018,3 hPa 0,0 l/m 0,0 km/h (0 Bft) W-SW 247 4,9 C 6,2 C 0,0 km/h (0 Bft)
10.09.2013 05:20 6,4 C 90 % 1018,4 hPa 0,0 l/m 0,3 km/h (0 Bft) W-SW 247 4,9 C 6,4 C 0,0 km/h (0 Bft)
10.09.2013 05:25 6,7 C 90 % 1018,4 hPa 0,0 l/m 0,2 km/h (0 Bft) W-NW 292 5,2 C 6,4 C 0,0 km/h (0 Bft)
10.09.2013 05:30 6,8 C 90 % 1018,4 hPa 0,0 l/m 0,0 km/h (0 Bft) W-SW 247 5,3 C 6,5 C 0,0 km/h (0 Bft)
10.09.2013 05:35 6,8 C 90 % 1018,4 hPa 0,0 l/m 0,2 km/h (0 Bft) NO 45 5,3 C 6,6 C 0,0 km/h (0 Bft)
10.09.2013 05:40 6,9 C 90 % 1018,0 hPa 0,0 l/m 0,2 km/h (0 Bft) NO 45 5,4 C 6,6 C 0,0 km/h (0 Bft)
10.09.2013 05:45 7,0 C 90 % 1018,0 hPa 0,0 l/m 0,6 km/h (0 Bft) W-SW 247 5,5 C 6,9 C 2,7 km/h (1 Bft)
10.09.2013 05:50 7,3 C 90 % 1018,0 hPa 0,0 l/m 1,0 km/h (0 Bft) NW 315 5,8 C 7,1 C 0,0 km/h (0 Bft)
10.09.2013 05:55 7,4 C 90 % 1018,0 hPa 0,0 l/m 0,3 km/h (0 Bft) S 180 5,9 C 7,2 C 0,0 km/h (0 Bft)
10.09.2013 06:00 7,5 C 90 % 1018,1 hPa 0,0 l/m 0,0 km/h (0 Bft) O 90 6,0 C 7,3 C 0,0 km/h (0 Bft)
10.09.2013 06:05 7,5 C 90 % 1018,1 hPa 0,0 l/m 0,0 km/h (0 Bft) NO 45 6,0 C 7,3 C 0,0 km/h (0 Bft)
10.09.2013 06:10 7,7 C 90 % 1018,1 hPa 0,0 l/m 0,2 km/h (0 Bft) S-SO 157 6,2 C 7,4 C 1,6 km/h (1 Bft)
10.09.2013 06:15 7,9 C 90 % 1018,1 hPa 0,0 l/m 0,6 km/h (0 Bft) W 270 6,4 C 7,5 C 0,0 km/h (0 Bft)
10.09.2013 06:20 7,9 C 90 % 1018,0 hPa 0,0 l/m 0,8 km/h (0 Bft) S-SW 202 6,4 C 7,7 C 4,7 km/h (1 Bft)
10.09.2013 06:25 8,4 C 89 % 1018,0 hPa 0,0 l/m 1,4 km/h (1 Bft) SO 135 6,7 C 8,0 C 2,1 km/h (1 Bft)
10.09.2013 06:30 8,5 C 89 % 1018,0 hPa 0,0 l/m 1,9 km/h (1 Bft) SW 225 6,8 C 8,1 C 5,0 km/h (1 Bft)
10.09.2013 06:35 8,4 C 89 % 1018,0 hPa 0,0 l/m 1,8 km/h (1 Bft) O 90 6,7 C 8,3 C 0,0 km/h (0 Bft)
10.09.2013 06:40 8,4 C 88 % 1018,1 hPa 0,0 l/m 1,8 km/h (1 Bft) O-SO 112 6,5 C 8,2 C 6,4 km/h (2 Bft)
10.09.2013 06:45 8,4 C 88 % 1018,1 hPa 0,0 l/m 1,3 km/h (1 Bft) N-NO 22 6,5 C 8,3 C 0,0 km/h (0 Bft)
10.09.2013 06:50 8,4 C 88 % 1018,1 hPa 0,0 l/m 0,8 km/h (0 Bft) W-NW 292 6,5 C 8,3 C 0,0 km/h (0 Bft)
10.09.2013 06:55 8,4 C 87 % 1018,1 hPa 0,0 l/m 0,5 km/h (0 Bft) N-NW 337 6,4 C 8,2 C 0,0 km/h (0 Bft)
10.09.2013 07:00 8,3 C 87 % 1018,0 hPa 0,0 l/m 1,3 km/h (1 Bft) SO 135 6,3 C 8,3 C 2,3 km/h (1 Bft)
10.09.2013 07:05 8,5 C 88 % 1018,0 hPa 0,0 l/m 1,8 km/h (1 Bft) N-NW 337 6,6 C 8,3 C 0,0 km/h (0 Bft)
10.09.2013 07:10 8,4 C 88 % 1018,0 hPa 0,0 l/m 1,3 km/h (1 Bft) W-SW 247 6,5 C 8,3 C 0,0 km/h (0 Bft)
10.09.2013 07:15 8,5 C 87 % 1018,0 hPa 0,0 l/m 0,6 km/h (0 Bft) SO 135 6,5 C 8,3 C 0,0 km/h (0 Bft)
10.09.2013 07:20 8,6 C 87 % 1017,7 hPa 0,0 l/m 0,6 km/h (0 Bft) S-SW 202 6,6 C 8,4 C 0,0 km/h (0 Bft)
10.09.2013 07:25 8,7 C 88 % 1017,7 hPa 0,0 l/m 1,1 km/h (1 Bft) S 180 6,8 C 8,6 C 4,8 km/h (1 Bft)
10.09.2013 07:30 8,9 C 87 % 1017,7 hPa 0,0 l/m 1,9 km/h (1 Bft) S 180 6,9 C 8,7 C 0,0 km/h (0 Bft)
10.09.2013 07:35 8,9 C 87 % 1017,7 hPa 0,0 l/m 1,3 km/h (1 Bft) S-SW 202 6,9 C 8,9 C 0,0 km/h (0 Bft)
10.09.2013 07:40 9,0 C 87 % 1017,7 hPa 0,0 l/m 0,3 km/h (0 Bft) S-SW 202 7,0 C 8,9 C 0,0 km/h (0 Bft)
10.09.2013 07:45 9,2 C 87 % 1017,7 hPa 0,0 l/m 0,2 km/h (0 Bft) SW 225 7,2 C 9,1 C 0,0 km/h (0 Bft)
10.09.2013 07:50 9,3 C 86 % 1017,7 hPa 0,0 l/m 0,3 km/h (0 Bft) W-SW 247 7,1 C 9,2 C 2,3 km/h (1 Bft)
10.09.2013 07:55 9,6 C 86 % 1017,7 hPa 0,0 l/m 0,5 km/h (0 Bft) S 180 7,4 C 9,5 C 0,0 km/h (0 Bft)
10.09.2013 08:00 9,9 C 86 % 1017,6 hPa 0,0 l/m 0,3 km/h (0 Bft) W-NW 292 7,7 C 9,9 C 0,0 km/h (0 Bft)
10.09.2013 08:05 10,3 C 85 % 1017,6 hPa 0,0 l/m 0,5 km/h (0 Bft) SW 225 7,9 C 10,3 C 2,4 km/h (1 Bft)
10.09.2013 08:10 10,5 C 85 % 1017,6 hPa 0,0 l/m 0,6 km/h (0 Bft) O 90 8,1 C 10,9 C 1,6 km/h (1 Bft)
10.09.2013 08:15 11,1 C 83 % 1017,6 hPa 0,0 l/m 0,5 km/h (0 Bft) S 180 8,3 C 11,4 C 1,9 km/h (1 Bft)
10.09.2013 08:20 11,2 C 83 % 1017,8 hPa 0,0 l/m 0,3 km/h (0 Bft) S-SW 202 8,4 C 11,6 C 0,0 km/h (0 Bft)
10.09.2013 08:25 11,1 C 82 % 1017,8 hPa 0,0 l/m 0,2 km/h (0 Bft) NO 45 8,1 C 11,7 C 0,0 km/h (0 Bft)
10.09.2013 08:30 11,2 C 83 % 1017,8 hPa 0,0 l/m 0,0 km/h (0 Bft) NO 45 8,4 C 11,8 C 0,0 km/h (0 Bft)
10.09.2013 08:35 11,3 C 82 % 1017,8 hPa 0,0 l/m 0,3 km/h (0 Bft) O-SO 112 8,3 C 11,9 C 0,0 km/h (0 Bft)
10.09.2013 08:40 11,6 C 82 % 1017,6 hPa 0,0 l/m 0,3 km/h (0 Bft) S-SO 157 8,6 C 12,0 C 0,0 km/h (0 Bft)
10.09.2013 08:45 11,9 C 81 % 1017,6 hPa 0,0 l/m 0,0 km/h (0 Bft) S 180 8,7 C 12,4 C 0,0 km/h (0 Bft)
10.09.2013 08:50 12,2 C 81 % 1017,6 hPa 0,0 l/m 0,0 km/h (0 Bft) S 180 9,0 C 12,7 C 0,0 km/h (0 Bft)
10.09.2013 08:55 13,2 C 79 % 1017,6 hPa 0,0 l/m 0,2 km/h (0 Bft) W 270 9,6 C 13,3 C 0,0 km/h (0 Bft)
10.09.2013 09:00 13,1 C 79 % 1017,8 hPa 0,0 l/m 0,2 km/h (0 Bft) W-SW 247 9,5 C 13,7 C 0,0 km/h (0 Bft)
10.09.2013 09:05 13,1 C 78 % 1017,8 hPa 0,0 l/m 0,0 km/h (0 Bft) W-SW 247 9,4 C 14,2 C 0,0 km/h (0 Bft)
10.09.2013 09:10 13,0 C 77 % 1017,8 hPa 0,0 l/m 0,0 km/h (0 Bft) N-NO 22 9,1 C 14,3 C 0,0 km/h (0 Bft)
10.09.2013 09:15 12,8 C 79 % 1017,8 hPa 0,0 l/m 0,0 km/h (0 Bft) O-NO 67 9,2 C 14,1 C 0,0 km/h (0 Bft)
10.09.2013 09:20 12,9 C 79 % 1017,8 hPa 0,0 l/m 0,0 km/h (0 Bft) NW 315 9,3 C 14,1 C 0,0 km/h (0 Bft)
10.09.2013 09:25 13,0 C 79 % 1017,8 hPa 0,0 l/m 0,3 km/h (0 Bft) W-SW 247 9,4 C 14,1 C 2,3 km/h (1 Bft)
10.09.2013 09:30 13,0 C 79 % 1017,8 hPa 0,0 l/m 0,3 km/h (0 Bft) SO 135 9,4 C 14,0 C 0,0 km/h (0 Bft)
10.09.2013 09:35 13,0 C 79 % 1017,8 hPa 0,0 l/m 0,2 km/h (0 Bft) O 90 9,4 C 14,1 C 0,0 km/h (0 Bft)
10.09.2013 09:40 13,2 C 79 % 1017,9 hPa 0,0 l/m 0,0 km/h (0 Bft) NO 45 9,6 C 14,3 C 0,0 km/h (0 Bft)
10.09.2013 09:45 13,7 C 78 % 1017,9 hPa 0,0 l/m 0,5 km/h (0 Bft) S 180 9,9 C 14,7 C 3,7 km/h (1 Bft)
10.09.2013 09:50 13,9 C 78 % 1017,9 hPa 0,0 l/m 1,0 km/h (0 Bft) S 180 10,1 C 15,0 C 3,1 km/h (1 Bft)
10.09.2013 09:55 14,5 C 76 % 1017,9 hPa 0,0 l/m 1,3 km/h (1 Bft) S 180 10,3 C 15,4 C 3,5 km/h (1 Bft)
10.09.2013 10:00 14,8 C 76 % 1018,1 hPa 0,0 l/m 1,6 km/h (1 Bft) S 180 10,6 C 15,6 C 2,1 km/h (1 Bft)
10.09.2013 10:05 14,8 C 74 % 1018,1 hPa 0,0 l/m 2,9 km/h (1 Bft) S 180 10,2 C 15,8 C 6,0 km/h (2 Bft)
10.09.2013 10:10 14,8 C 73 % 1018,1 hPa 0,0 l/m 4,0 km/h (1 Bft) SO 135 10,0 C 15,6 C 8,0 km/h (2 Bft)
10.09.2013 10:15 14,8 C 73 % 1018,1 hPa 0,0 l/m 5,1 km/h (1 Bft) S 180 10,0 C 15,5 C 6,8 km/h (2 Bft)
10.09.2013 10:20 15,6 C 72 % 1018,2 hPa 0,0 l/m 4,7 km/h (1 Bft) SO 135 10,6 C 15,7 C 10,3 km/h (2 Bft)
10.09.2013 10:25 15,8 C 69 % 1018,2 hPa 0,0 l/m 5,0 km/h (1 Bft) O-SO 112 10,1 C 16,1 C 5,3 km/h (1 Bft)
10.09.2013 10:30 15,9 C 69 % 1018,2 hPa 0,0 l/m 5,0 km/h (1 Bft) S 180 10,2 C 16,4 C 10,3 km/h (2 Bft)
10.09.2013 10:35 15,8 C 70 % 1018,2 hPa 0,0 l/m 4,5 km/h (1 Bft) S 180 10,3 C 16,6 C 4,2 km/h (1 Bft)
10.09.2013 10:40 16,1 C 69 % 1018,8 hPa 0,0 l/m 4,7 km/h (1 Bft) O-SO 112 10,4 C 16,8 C 10,5 km/h (2 Bft)
10.09.2013 10:45 15,9 C 69 % 1018,8 hPa 0,0 l/m 5,5 km/h (1 Bft) S-SW 202 10,2 C 16,8 C 7,7 km/h (2 Bft)
10.09.2013 10:50 15,5 C 70 % 1018,8 hPa 0,0 l/m 5,3 km/h (1 Bft) S 180 10,1 C 16,6 C 11,7 km/h (2 Bft)
10.09.2013 10:55 15,7 C 72 % 1018,8 hPa 0,0 l/m 4,8 km/h (1 Bft) S 180 10,7 C 16,5 C 8,7 km/h (2 Bft)
10.09.2013 11:00 15,8 C 72 % 1018,1 hPa 0,0 l/m 5,3 km/h (1 Bft) O-SO 112 10,8 C 16,4 C 5,3 km/h (1 Bft)
10.09.2013 11:05 15,5 C 70 % 1018,1 hPa 0,0 l/m 6,1 km/h (2 Bft) S 180 10,1 C 16,3 C 5,3 km/h (1 Bft)
10.09.2013 11:10 15,6 C 72 % 1018,1 hPa 0,0 l/m 6,0 km/h (2 Bft) S-SO 157 10,6 C 16,4 C 12,6 km/h (3 Bft)
10.09.2013 11:15 15,8 C 71 % 1018,1 hPa 0,0 l/m 5,0 km/h (1 Bft) S-SW 202 10,6 C 16,6 C 4,0 km/h (1 Bft)
10.09.2013 11:20 16,2 C 70 % 1018,4 hPa 0,0 l/m 5,1 km/h (1 Bft) S-SW 202 10,7 C 16,8 C 8,2 km/h (2 Bft)
10.09.2013 11:25 17,1 C 67 % 1018,4 hPa 0,0 l/m 6,9 km/h (2 Bft) S-SO 157 10,9 C 16,9 C 11,7 km/h (2 Bft)
10.09.2013 11:30 19,4 C 58 % 1018,4 hPa 0,0 l/m 7,7 km/h (2 Bft) S-SW 202 10,9 C 17,8 C 15,4 km/h (3 Bft)
10.09.2013 11:35 16,7 C 63 % 1018,4 hPa 0,0 l/m 8,2 km/h (2 Bft) S 180 9,6 C 17,9 C 14,6 km/h (3 Bft)
10.09.2013 11:40 16,4 C 66 % 1018,6 hPa 0,0 l/m 8,2 km/h (2 Bft) S 180 10,0 C 17,0 C 6,1 km/h (2 Bft)
10.09.2013 11:45 15,9 C 67 % 1018,6 hPa 0,0 l/m 8,7 km/h (2 Bft) N-NO 22 9,8 C 15,9 C 10,3 km/h (2 Bft)
10.09.2013 11:50 15,8 C 69 % 1018,6 hPa 0,0 l/m 7,7 km/h (2 Bft) SW 225 10,1 C 15,9 C 15,6 km/h (3 Bft)
10.09.2013 11:55 15,3 C 70 % 1018,6 hPa 0,0 l/m 7,7 km/h (2 Bft) S-SO 157 9,9 C 15,5 C 12,9 km/h (3 Bft)
10.09.2013 12:00 15,0 C 71 % 1017,8 hPa 0,0 l/m 8,4 km/h (2 Bft) S 180 9,8 C 14,6 C 19,8 km/h (3 Bft)
10.09.2013 12:05 14,8 C 72 % 1017,8 hPa 0,0 l/m 9,0 km/h (2 Bft) S 180 9,8 C 13,9 C 12,2 km/h (2 Bft)
10.09.2013 12:10 14,7 C 73 % 1017,8 hPa 0,0 l/m 9,7 km/h (2 Bft) S 180 9,9 C 13,3 C 20,0 km/h (4 Bft)
10.09.2013 12:15 14,7 C 74 % 1017,8 hPa 0,0 l/m 8,0 km/h (2 Bft) S 180 10,1 C 14,2 C 12,4 km/h (3 Bft)
10.09.2013 12:20 14,6 C 74 % 1017,8 hPa 0,0 l/m 7,2 km/h (2 Bft) S 180 10,0 C 14,8 C 8,4 km/h (2 Bft)
10.09.2013 12:25 14,6 C 74 % 1017,8 hPa 0,0 l/m 8,4 km/h (2 Bft) W-SW 247 10,0 C 13,8 C 6,1 km/h (2 Bft)
10.09.2013 12:30 14,4 C 73 % 1017,8 hPa 0,0 l/m 8,5 km/h (2 Bft) S 180 9,6 C 13,6 C 4,3 km/h (1 Bft)
10.09.2013 12:35 14,1 C 74 % 1017,8 hPa 0,0 l/m 9,7 km/h (2 Bft) S-SO 157 9,5 C 12,4 C 8,5 km/h (2 Bft)
10.09.2013 12:40 14,0 C 75 % 1017,9 hPa 0,0 l/m 9,7 km/h (2 Bft) S-SO 157 9,6 C 11,7 C 7,7 km/h (2 Bft)
10.09.2013 12:45 13,9 C 77 % 1017,9 hPa 0,0 l/m 8,0 km/h (2 Bft) S-SO 157 9,9 C 12,2 C 16,3 km/h (3 Bft)
10.09.2013 12:50 13,7 C 78 % 1017,9 hPa 0,0 l/m 7,6 km/h (2 Bft) S-SO 157 9,9 C 12,3 C 10,0 km/h (2 Bft)
10.09.2013 12:55 13,6 C 78 % 1017,9 hPa 0,0 l/m 8,2 km/h (2 Bft) S 180 9,8 C 11,5 C 8,0 km/h (2 Bft)
10.09.2013 13:00 13,5 C 79 % 1017,9 hPa 0,0 l/m 7,2 km/h (2 Bft) S-SW 202 9,9 C 12,2 C 10,9 km/h (2 Bft)
10.09.2013 13:05 13,1 C 79 % 1017,9 hPa 0,0 l/m 7,9 km/h (2 Bft) S 180 9,5 C 11,2 C 10,1 km/h (2 Bft)
10.09.2013 13:10 12,9 C 81 % 1017,9 hPa 0,0 l/m 7,9 km/h (2 Bft) N-NW 337 9,7 C 11,1 C 9,3 km/h (2 Bft)
10.09.2013 13:15 13,0 C 81 % 1017,9 hPa 0,0 l/m 8,4 km/h (2 Bft) S-SO 157 9,8 C 10,6 C 10,8 km/h (2 Bft)
10.09.2013 13:20 12,8 C 83 % 1017,9 hPa 0,0 l/m 8,4 km/h (2 Bft) S-SW 202 10,0 C 10,4 C 10,3 km/h (2 Bft)
10.09.2013 13:25 12,5 C 84 % 1017,9 hPa 0,0 l/m 7,9 km/h (2 Bft) S 180 9,9 C 10,6 C 13,2 km/h (3 Bft)
10.09.2013 13:30 12,4 C 84 % 1017,9 hPa 0,0 l/m 8,5 km/h (2 Bft) O-SO 112 9,8 C 10,0 C 6,4 km/h (2 Bft)
10.09.2013 13:35 12,1 C 84 % 1017,9 hPa 0,0 l/m 9,3 km/h (2 Bft) S-SW 202 9,5 C 9,1 C 17,9 km/h (3 Bft)
10.09.2013 13:40 11,9 C 85 % 1017,8 hPa 0,0 l/m 9,8 km/h (2 Bft) S 180 9,5 C 8,5 C 12,1 km/h (2 Bft)
10.09.2013 13:45 11,8 C 87 % 1017,8 hPa 0,0 l/m 9,2 km/h (2 Bft) S-SW 202 9,7 C 8,8 C 8,4 km/h (2 Bft)
10.09.2013 13:50 11,6 C 88 % 1017,8 hPa 0,7 l/m 7,7 km/h (2 Bft) S 180 9,7 C 9,9 C 10,6 km/h (2 Bft)
10.09.2013 13:55 11,5 C 89 % 1017,8 hPa 0,0 l/m 7,7 km/h (2 Bft) S 180 9,8 C 9,8 C 7,1 km/h (2 Bft)
10.09.2013 14:00 11,6 C 90 % 1017,7 hPa 0,0 l/m 8,0 km/h (2 Bft) S 180 10,0 C 9,6 C 5,8 km/h (2 Bft)
10.09.2013 14:05 11,9 C 91 % 1017,7 hPa 0,0 l/m 8,0 km/h (2 Bft) S 180 10,5 C 9,9 C 9,5 km/h (2 Bft)
10.09.2013 14:10 12,1 C 91 % 1017,7 hPa 0,0 l/m 7,2 km/h (2 Bft) S 180 10,7 C 10,6 C 7,7 km/h (2 Bft)
10.09.2013 14:15 12,6 C 91 % 1017,7 hPa 0,0 l/m 6,6 km/h (2 Bft) W 270 11,2 C 11,6 C 8,7 km/h (2 Bft)
10.09.2013 14:20 12,4 C 91 % 1017,7 hPa 0,0 l/m 6,4 km/h (2 Bft) SW 225 11,0 C 11,9 C 5,0 km/h (1 Bft)
10.09.2013 14:25 12,4 C 91 % 1017,7 hPa 0,0 l/m 6,4 km/h (2 Bft) S 180 11,0 C 11,9 C 9,3 km/h (2 Bft)
10.09.2013 14:30 12,4 C 91 % 1017,7 hPa 0,0 l/m 6,1 km/h (2 Bft) S 180 11,0 C 12,0 C 10,8 km/h (2 Bft)
10.09.2013 14:35 12,4 C 91 % 1017,7 hPa 0,0 l/m 6,0 km/h (2 Bft) S-SO 157 11,0 C 12,1 C 10,6 km/h (2 Bft)
10.09.2013 14:40 12,5 C 91 % 1017,9 hPa 0,0 l/m 5,8 km/h (2 Bft) S-SO 157 11,1 C 12,1 C 6,1 km/h (2 Bft)
10.09.2013 14:45 12,2 C 91 % 1017,9 hPa 0,0 l/m 6,1 km/h (2 Bft) S-SO 157 10,8 C 11,8 C 8,0 km/h (2 Bft)
10.09.2013 14:50 12,1 C 91 % 1017,9 hPa 0,0 l/m 6,4 km/h (2 Bft) S 180 10,7 C 11,7 C 9,0 km/h (2 Bft)
10.09.2013 14:55 12,0 C 91 % 1017,9 hPa 0,7 l/m 6,6 km/h (2 Bft) S-SW 202 10,6 C 11,4 C 6,1 km/h (2 Bft)
10.09.2013 15:00 11,9 C 91 % 1018,1 hPa 0,0 l/m 6,4 km/h (2 Bft) S 180 10,5 C 11,5 C 9,8 km/h (2 Bft)
10.09.2013 15:05 11,3 C 91 % 1018,1 hPa 0,7 l/m 6,3 km/h (2 Bft) W-SW 247 9,9 C 11,0 C 10,8 km/h (2 Bft)
10.09.2013 15:10 10,9 C 91 % 1018,1 hPa 0,0 l/m 6,3 km/h (2 Bft) SW 225 9,5 C 10,7 C 4,5 km/h (1 Bft)
10.09.2013 15:15 10,8 C 91 % 1018,1 hPa 0,0 l/m 6,1 km/h (2 Bft) S-SW 202 9,4 C 10,3 C 4,8 km/h (1 Bft)
10.09.2013 15:20 11,0 C 91 % 1018,1 hPa 0,7 l/m 6,1 km/h (2 Bft) S 180 9,6 C 10,3 C 12,7 km/h (3 Bft)
10.09.2013 15:25 11,5 C 91 % 1018,1 hPa 0,0 l/m 6,9 km/h (2 Bft) N 360 10,1 C 10,4 C 12,6 km/h (3 Bft)
10.09.2013 15:30 11,5 C 91 % 1018,1 hPa 0,0 l/m 7,2 km/h (2 Bft) S-SW 202 10,1 C 10,2 C 10,8 km/h (2 Bft)
10.09.2013 15:35 11,4 C 91 % 1018,1 hPa 0,7 l/m 6,6 km/h (2 Bft) S-SW 202 10,0 C 10,7 C 9,2 km/h (2 Bft)
10.09.2013 15:40 11,5 C 91 % 1018,2 hPa 0,0 l/m 6,3 km/h (2 Bft) S-SO 157 10,1 C 10,8 C 8,9 km/h (2 Bft)
10.09.2013 15:45 11,8 C 91 % 1018,2 hPa 0,0 l/m 6,8 km/h (2 Bft) S-SW 202 10,4 C 10,7 C 11,7 km/h (2 Bft)
10.09.2013 15:50 11,8 C 91 % 1018,2 hPa 0,0 l/m 7,1 km/h (2 Bft) S 180 10,4 C 10,3 C 10,0 km/h (2 Bft)
10.09.2013 15:55 11,2 C 90 % 1018,2 hPa 0,0 l/m 8,0 km/h (2 Bft) SW 225 9,6 C 9,3 C 10,9 km/h (2 Bft)
10.09.2013 16:00 11,0 C 90 % 1018,4 hPa 0,0 l/m 8,2 km/h (2 Bft) S 180 9,4 C 8,7 C 7,4 km/h (2 Bft)
10.09.2013 16:05 11,0 C 90 % 1018,4 hPa 0,0 l/m 7,6 km/h (2 Bft) S 180 9,4 C 9,0 C 10,3 km/h (2 Bft)
10.09.2013 16:10 11,1 C 91 % 1018,4 hPa 0,7 l/m 6,1 km/h (2 Bft) N 360 9,7 C 10,4 C 6,1 km/h (2 Bft)
10.09.2013 16:15 11,2 C 91 % 1018,4 hPa 0,0 l/m 4,8 km/h (1 Bft) O-SO 112 9,8 C 10,9 C 3,9 km/h (1 Bft)
10.09.2013 16:20 11,1 C 91 % 1018,3 hPa 0,0 l/m 4,8 km/h (1 Bft) S-SO 157 9,7 C 11,1 C 6,3 km/h (2 Bft)
10.09.2013 16:25 11,1 C 91 % 1018,3 hPa 0,7 l/m 4,3 km/h (1 Bft) W-SW 247 9,7 C 11,0 C 3,2 km/h (1 Bft)
10.09.2013 16:30 11,0 C 91 % 1018,3 hPa 0,0 l/m 4,3 km/h (1 Bft) SW 225 9,6 C 11,0 C 6,1 km/h (2 Bft)
10.09.2013 16:35 10,6 C 92 % 1018,3 hPa 0,0 l/m 5,5 km/h (1 Bft) W-SW 247 9,4 C 10,4 C 14,0 km/h (3 Bft)
10.09.2013 16:40 10,4 C 92 % 1018,6 hPa 0,0 l/m 6,8 km/h (2 Bft) S 180 9,2 C 9,5 C 11,7 km/h (2 Bft)
10.09.2013 16:45 10,2 C 92 % 1018,6 hPa 0,0 l/m 8,4 km/h (2 Bft) S 180 9,0 C 7,8 C 8,0 km/h (2 Bft)
10.09.2013 16:50 10,1 C 92 % 1018,6 hPa 0,0 l/m 8,2 km/h (2 Bft) S 180 8,9 C 7,8 C 8,9 km/h (2 Bft)
10.09.2013 16:55 9,7 C 91 % 1018,6 hPa 0,0 l/m 8,5 km/h (2 Bft) S-SW 202 8,3 C 7,2 C 8,5 km/h (2 Bft)
10.09.2013 17:00 9,6 C 91 % 1019,3 hPa 0,0 l/m 7,4 km/h (2 Bft) S-SW 202 8,2 C 8,0 C 5,6 km/h (1 Bft)
10.09.2013 17:05 9,5 C 92 % 1019,3 hPa 0,7 l/m 6,0 km/h (2 Bft) S-SO 157 8,3 C 8,9 C 8,7 km/h (2 Bft)
10.09.2013 17:10 9,4 C 92 % 1019,3 hPa 0,0 l/m 5,6 km/h (1 Bft) O-NO 67 8,2 C 8,8 C 5,1 km/h (1 Bft)
10.09.2013 17:15 9,1 C 92 % 1019,3 hPa 0,0 l/m 4,8 km/h (1 Bft) O-SO 112 7,9 C 8,9 C 9,5 km/h (2 Bft)
10.09.2013 17:20 8,9 C 92 % 1019,5 hPa 0,0 l/m 4,0 km/h (1 Bft) O-NO 67 7,7 C 8,9 C 5,1 km/h (1 Bft)
10.09.2013 17:25 8,8 C 92 % 1019,5 hPa 0,0 l/m 3,4 km/h (1 Bft) O-SO 112 7,6 C 8,9 C 3,4 km/h (1 Bft)
10.09.2013 17:30 8,9 C 92 % 1019,5 hPa 0,0 l/m 2,9 km/h (1 Bft) O-SO 112 7,7 C 8,8 C 3,1 km/h (1 Bft)
10.09.2013 17:35 8,8 C 92 % 1019,5 hPa 0,0 l/m 3,9 km/h (1 Bft) S-SW 202 7,6 C 8,8 C 6,0 km/h (2 Bft)
10.09.2013 17:40 8,8 C 92 % 1019,6 hPa 0,0 l/m 3,7 km/h (1 Bft) O 90 7,6 C 8,8 C 2,9 km/h (1 Bft)
10.09.2013 17:45 8,7 C 93 % 1019,6 hPa 0,0 l/m 2,6 km/h (1 Bft) O-SO 112 7,6 C 8,7 C 1,9 km/h (1 Bft)
10.09.2013 17:50 8,7 C 93 % 1019,6 hPa 0,0 l/m 1,9 km/h (1 Bft) O-SO 112 7,6 C 8,7 C 6,1 km/h (2 Bft)
10.09.2013 17:55 8,7 C 93 % 1019,6 hPa 0,0 l/m 3,5 km/h (1 Bft) SO 135 7,6 C 8,6 C 4,0 km/h (1 Bft)
10.09.2013 18:00 8,6 C 93 % 1019,5 hPa 0,0 l/m 3,7 km/h (1 Bft) S-SW 202 7,5 C 8,6 C 7,1 km/h (2 Bft)
10.09.2013 18:05 8,7 C 93 % 1019,5 hPa 0,0 l/m 2,7 km/h (1 Bft) SW 225 7,6 C 8,6 C 4,0 km/h (1 Bft)
10.09.2013 18:10 8,7 C 93 % 1019,5 hPa 0,0 l/m 2,6 km/h (1 Bft) S-SO 157 7,6 C 8,6 C 2,9 km/h (1 Bft)
10.09.2013 18:15 8,8 C 93 % 1019,5 hPa 0,0 l/m 2,9 km/h (1 Bft) O-SO 112 7,7 C 8,7 C 2,3 km/h (1 Bft)
10.09.2013 18:20 9,0 C 93 % 1019,6 hPa 0,0 l/m 3,7 km/h (1 Bft) S 180 7,9 C 8,8 C 5,5 km/h (1 Bft)
10.09.2013 18:25 9,0 C 93 % 1019,6 hPa 0,0 l/m 3,5 km/h (1 Bft) S-SW 202 7,9 C 8,9 C 4,5 km/h (1 Bft)
10.09.2013 18:30 9,1 C 93 % 1019,6 hPa 0,0 l/m 3,5 km/h (1 Bft) S-SO 157 8,0 C 9,0 C 3,7 km/h (1 Bft)
10.09.2013 18:35 9,0 C 93 % 1019,6 hPa 0,0 l/m 3,9 km/h (1 Bft) SO 135 7,9 C 8,9 C 4,8 km/h (1 Bft)
10.09.2013 18:40 8,9 C 93 % 1019,6 hPa 0,0 l/m 3,9 km/h (1 Bft) S 180 7,8 C 8,8 C 5,0 km/h (1 Bft)
10.09.2013 18:45 8,7 C 93 % 1019,6 hPa 0,0 l/m 4,7 km/h (1 Bft) S-SO 157 7,6 C 8,4 C 5,5 km/h (1 Bft)
10.09.2013 18:50 8,6 C 93 % 1019,6 hPa 0,0 l/m 5,3 km/h (1 Bft) SO 135 7,5 C 8,1 C 7,1 km/h (2 Bft)
10.09.2013 18:55 8,4 C 93 % 1019,6 hPa 0,0 l/m 3,9 km/h (1 Bft) S-SO 157 7,3 C 8,3 C 4,5 km/h (1 Bft)
10.09.2013 19:00 8,2 C 93 % 1019,9 hPa 0,0 l/m 3,5 km/h (1 Bft) SO 135 7,1 C 8,3 C 5,3 km/h (1 Bft)
10.09.2013 19:05 8,0 C 93 % 1019,9 hPa 0,0 l/m 3,5 km/h (1 Bft) S 180 6,9 C 7,9 C 5,5 km/h (1 Bft)
10.09.2013 19:10 7,9 C 93 % 1019,9 hPa 0,0 l/m 3,4 km/h (1 Bft) O-SO 112 6,8 C 7,8 C 3,2 km/h (1 Bft)
10.09.2013 19:15 7,8 C 93 % 1019,9 hPa 0,0 l/m 3,2 km/h (1 Bft) S-SO 157 6,7 C 7,6 C 3,7 km/h (1 Bft)
10.09.2013 19:20 7,7 C 93 % 1020,0 hPa 0,0 l/m 3,7 km/h (1 Bft) S-SO 157 6,6 C 7,6 C 4,8 km/h (1 Bft)
10.09.2013 19:25 7,6 C 93 % 1020,0 hPa 0,0 l/m 3,4 km/h (1 Bft) S 180 6,5 C 7,4 C 2,9 km/h (1 Bft)
10.09.2013 19:30 7,6 C 93 % 1020,0 hPa 0,0 l/m 3,4 km/h (1 Bft) S-SO 157 6,5 C 7,4 C 4,0 km/h (1 Bft)
10.09.2013 19:35 7,5 C 93 % 1020,0 hPa 0,0 l/m 2,9 km/h (1 Bft) SO 135 6,4 C 7,4 C 3,2 km/h (1 Bft)
10.09.2013 19:40 7,5 C 93 % 1020,1 hPa 0,0 l/m 2,1 km/h (1 Bft) S 180 6,4 C 7,3 C 0,0 km/h (0 Bft)
10.09.2013 19:45 7,5 C 93 % 1020,1 hPa 0,0 l/m 2,4 km/h (1 Bft) S-SW 202 6,4 C 7,3 C 3,2 km/h (1 Bft)
10.09.2013 19:50 7,4 C 93 % 1020,1 hPa 0,0 l/m 2,4 km/h (1 Bft) S 180 6,3 C 7,3 C 2,9 km/h (1 Bft)
10.09.2013 19:55 7,4 C 93 % 1020,1 hPa 0,0 l/m 2,7 km/h (1 Bft) SO 135 6,3 C 7,2 C 3,1 km/h (1 Bft)
10.09.2013 20:00 7,3 C 93 % 1020,2 hPa 0,7 l/m 3,1 km/h (1 Bft) N-NO 22 6,2 C 7,2 C 2,3 km/h (1 Bft)
10.09.2013 20:05 7,3 C 93 % 1020,2 hPa 0,0 l/m 2,1 km/h (1 Bft) SW 225 6,2 C 7,1 C 2,3 km/h (1 Bft)
10.09.2013 20:10 7,2 C 93 % 1020,2 hPa 0,0 l/m 1,6 km/h (1 Bft) O-SO 112 6,1 C 7,1 C 2,4 km/h (1 Bft)
10.09.2013 20:15 7,2 C 94 % 1020,2 hPa 0,0 l/m 1,0 km/h (0 Bft) SO 135 6,3 C 7,1 C 0,0 km/h (0 Bft)
10.09.2013 20:20 7,1 C 94 % 1019,9 hPa 0,0 l/m 0,6 km/h (0 Bft) NO 45 6,2 C 7,1 C 2,1 km/h (1 Bft)
10.09.2013 20:25 7,0 C 94 % 1019,9 hPa 0,0 l/m 0,3 km/h (0 Bft) NW 315 6,1 C 7,1 C 0,0 km/h (0 Bft)
10.09.2013 20:30 7,0 C 94 % 1019,9 hPa 0,0 l/m 0,5 km/h (0 Bft) O-NO 67 6,1 C 7,0 C 0,0 km/h (0 Bft)
10.09.2013 20:35 6,9 C 94 % 1019,9 hPa 0,0 l/m 0,3 km/h (0 Bft) SO 135 6,0 C 7,0 C 0,0 km/h (0 Bft)
10.09.2013 20:40 6,9 C 94 % 1020,5 hPa 0,0 l/m 0,3 km/h (0 Bft) N-NW 337 6,0 C 7,0 C 0,0 km/h (0 Bft)
10.09.2013 20:46 6,9 C 94 % 1020,5 hPa 0,0 l/m 0,3 km/h (0 Bft) N-NO 22 6,0 C 7,0 C 0,0 km/h (0 Bft)
10.09.2013 20:50 6,9 C 94 % 1020,5 hPa 0,0 l/m 0,0 km/h (0 Bft) N-NO 22 6,0 C 6,9 C 0,0 km/h (0 Bft)
10.09.2013 20:55 6,9 C 94 % 1020,5 hPa 0,0 l/m 0,3 km/h (0 Bft) NO 45 6,0 C 6,9 C 0,0 km/h (0 Bft)
10.09.2013 21:00 7,0 C 94 % 1020,5 hPa 0,0 l/m 0,3 km/h (0 Bft) S 180 6,1 C 6,9 C 1,6 km/h (1 Bft)
10.09.2013 21:05 6,9 C 95 % 1020,5 hPa 0,0 l/m 0,2 km/h (0 Bft) SW 225 6,2 C 6,9 C 0,0 km/h (0 Bft)
10.09.2013 21:10 7,0 C 94 % 1020,5 hPa 0,0 l/m 0,2 km/h (0 Bft) O-NO 67 6,1 C 6,9 C 0,0 km/h (0 Bft)
10.09.2013 21:15 6,9 C 95 % 1020,5 hPa 0,0 l/m 0,6 km/h (0 Bft) N 360 6,2 C 7,0 C 0,0 km/h (0 Bft)
10.09.2013 21:20 7,0 C 94 % 1020,4 hPa 0,0 l/m 0,6 km/h (0 Bft) NO 45 6,1 C 7,0 C 0,0 km/h (0 Bft)
10.09.2013 21:25 7,0 C 95 % 1020,4 hPa 0,0 l/m 0,6 km/h (0 Bft) SO 135 6,3 C 7,0 C 2,7 km/h (1 Bft)
10.09.2013 21:30 6,9 C 95 % 1020,4 hPa 0,0 l/m 0,6 km/h (0 Bft) O 90 6,2 C 6,9 C 0,0 km/h (0 Bft)
10.09.2013 21:35 6,9 C 95 % 1020,4 hPa 0,0 l/m 0,5 km/h (0 Bft) N-NO 22 6,2 C 6,9 C 0,0 km/h (0 Bft)
10.09.2013 21:40 6,9 C 95 % 1020,4 hPa 0,0 l/m 0,0 km/h (0 Bft) N-NO 22 6,2 C 6,8 C 0,0 km/h (0 Bft)
10.09.2013 21:45 6,9 C 95 % 1020,4 hPa 0,0 l/m 0,0 km/h (0 Bft) NO 45 6,2 C 6,8 C 0,0 km/h (0 Bft)
10.09.2013 21:50 6,9 C 95 % 1020,4 hPa 0,0 l/m 0,0 km/h (0 Bft) NO 45 6,2 C 6,7 C 0,0 km/h (0 Bft)
10.09.2013 21:55 6,7 C 95 % 1020,4 hPa 0,0 l/m 0,0 km/h (0 Bft) NO 45 6,0 C 6,7 C 0,0 km/h (0 Bft)
10.09.2013 22:00 6,7 C 95 % 1020,2 hPa 0,0 l/m 0,0 km/h (0 Bft) NO 45 6,0 C 6,7 C 0,0 km/h (0 Bft)
10.09.2013 22:05 6,6 C 95 % 1020,2 hPa 0,0 l/m 0,0 km/h (0 Bft) O-NO 67 5,9 C 6,6 C 0,0 km/h (0 Bft)
10.09.2013 22:10 6,5 C 95 % 1020,2 hPa 0,0 l/m 0,0 km/h (0 Bft) NO 45 5,8 C 6,5 C 0,0 km/h (0 Bft)
10.09.2013 22:15 6,4 C 95 % 1020,2 hPa 0,0 l/m 0,0 km/h (0 Bft) N-NO 22 5,7 C 6,3 C 0,0 km/h (0 Bft)
10.09.2013 22:20 6,3 C 95 % 1020,1 hPa 0,0 l/m 0,0 km/h (0 Bft) NO 45 5,6 C 6,2 C 0,0 km/h (0 Bft)
10.09.2013 22:25 6,1 C 95 % 1020,1 hPa 0,0 l/m 0,0 km/h (0 Bft) N-NO 22 5,4 C 6,1 C 0,0 km/h (0 Bft)
10.09.2013 22:30 6,1 C 95 % 1020,1 hPa 0,0 l/m 0,0 km/h (0 Bft) N-NO 22 5,4 C 6,0 C 0,0 km/h (0 Bft)
10.09.2013 22:35 6,0 C 95 % 1020,1 hPa 0,0 l/m 0,0 km/h (0 Bft) N 360 5,3 C 5,9 C 0,0 km/h (0 Bft)
10.09.2013 22:40 5,9 C 96 % 1019,9 hPa 0,0 l/m 0,0 km/h (0 Bft) NO 45 5,3 C 5,9 C 0,0 km/h (0 Bft)
10.09.2013 22:45 5,9 C 96 % 1019,9 hPa 0,0 l/m 0,0 km/h (0 Bft) N-NW 337 5,3 C 5,9 C 0,0 km/h (0 Bft)
10.09.2013 22:50 6,1 C 95 % 1019,9 hPa 0,0 l/m 0,0 km/h (0 Bft) N 360 5,4 C 5,9 C 0,0 km/h (0 Bft)
10.09.2013 22:55 6,1 C 95 % 1019,9 hPa 0,0 l/m 0,0 km/h (0 Bft) O-SO 112 5,4 C 6,0 C 0,0 km/h (0 Bft)
10.09.2013 23:00 6,1 C 95 % 1019,8 hPa 0,0 l/m 0,0 km/h (0 Bft) N-NW 337 5,4 C 6,1 C 0,0 km/h (0 Bft)
10.09.2013 23:05 6,1 C 95 % 1019,8 hPa 0,0 l/m 0,2 km/h (0 Bft) O-NO 67 5,4 C 6,1 C 0,0 km/h (0 Bft)
10.09.2013 23:10 6,1 C 95 % 1019,8 hPa 0,0 l/m 0,2 km/h (0 Bft) O-SO 112 5,4 C 6,1 C 0,0 km/h (0 Bft)
10.09.2013 23:15 6,2 C 95 % 1019,8 hPa 0,0 l/m 0,0 km/h (0 Bft) NO 45 5,5 C 6,1 C 0,0 km/h (0 Bft)
10.09.2013 23:20 6,1 C 95 % 1019,9 hPa 0,0 l/m 0,0 km/h (0 Bft) NO 45 5,4 C 6,1 C 0,0 km/h (0 Bft)
10.09.2013 23:25 6,2 C 95 % 1019,9 hPa 0,0 l/m 0,0 km/h (0 Bft) N-NO 22 5,5 C 6,1 C 0,0 km/h (0 Bft)
10.09.2013 23:30 6,2 C 95 % 1019,9 hPa 0,0 l/m 0,0 km/h (0 Bft) NO 45 5,5 C 6,1 C 0,0 km/h (0 Bft)
10.09.2013 23:35 6,3 C 95 % 1019,9 hPa 0,0 l/m 0,0 km/h (0 Bft) S 180 5,6 C 6,2 C 0,0 km/h (0 Bft)
10.09.2013 23:40 6,3 C 95 % 1019,8 hPa 0,0 l/m 0,2 km/h (0 Bft) O 90 5,6 C 6,2 C 0,0 km/h (0 Bft)
10.09.2013 23:45 6,3 C 96 % 1019,8 hPa 0,0 l/m 0,5 km/h (0 Bft) O-NO 67 5,7 C 6,2 C 2,4 km/h (1 Bft)
10.09.2013 23:50 6,3 C 96 % 1019,8 hPa 0,0 l/m 0,3 km/h (0 Bft) N 360 5,7 C 6,2 C 0,0 km/h (0 Bft)
10.09.2013 23:55 6,2 C 96 % 1019,8 hPa 0,0 l/m 0,5 km/h (0 Bft) NO 45 5,6 C 6,2 C 0,0 km/h (0 Bft)
_ Min-Zeit 02:45 11:30 08:55 - 23:35 - - 02:45 02:45 23:55
Minimum _ 5,6 C 58 % 1017,6 hPa - 0,0 km/h (0 Bft) - - 4,2 C 5,4 C 0,0 km/h (0 Bft)
_ Max-Zeit 11:30 23:55 00:15 20:00 13:40 - - 14:15 11:35 12:10
Maximum _ 19,4 C 96 % 1020,6 hPa 0,7 l/m 9,8 km/h
S (2 Bft)
- - 11,2 C 17,9 C 20,0 km/h
S (4 Bft)
Durchschnitt _ 9,3 C 88 % 1018,9 hPa #6,2 l/m 2,7 km/h (1 Bft) S - 7,3 C 9,1 C 3,6 km/h (1 Bft)